Regional Weather Roundup
Issued by NWS Grand Forks, ND

Home | Current Version | Previous Version | Graphics & Text | Print | Product List | Glossary On
Versions: 1 2 3 4 5 6 7 8 9 10 11 12 13 14 15 16 17 18 19 20 21 22 23 24 25 26 27 28 29 30 31 32 33 34 35 36 37 38 39 40 41 42 43 44 45 46 47 48 49 50
000
ASUS43 KFGF 011610
RWRFGF
PRAIRIE TO PINES  WEATHER ROUNDUP
NATIONAL WEATHER SERVICE EASTERN NORTH DAKOTA/GRAND FORKS ND
1100 AM CDT SUN MAY 01 2016

 **SATELLITE DATA USED TO AUGMENT SKY COVER AT AUTOMATED STATIONS**
 *****  WEATHER ACROSS EASTERN NORTH DAKOTA  *****

CITY           SKY/WX    TMP DP  RH WIND       PRES   REMARKS
GRAND FORKS    SUNNY     58  30  34 NE9       30.29F
GRAND FRKS AFB SUNNY     57  27  32 VRB6      30.29F
DEVILS LAKE    SUNNY     55  26  32 VRB3      30.31F
FARGO          SUNNY     55  29  36 NW8       30.28F
WAHPETON ARPT  SUNNY     54  28  37 N9G16     30.27F
$$

 ***** WEATHER ACROSS CENTRAL AND WESTERN NORTH DAKOTA  *****

CITY           SKY/WX    TMP DP  RH WIND       PRES   REMARKS
BISMARCK       SUNNY     55  31  39 VRB3      30.33F
MINOT          SUNNY     61  28  28 W3        30.32F
JAMESTOWN      SUNNY     54  30  40 NE6       30.29F
MINOT AFB      SUNNY     55  29  37 VRB1      30.31F
GARRISON         N/A     55  30  38 VRB3      30.32F
WILLISTON      SUNNY     54  30  40 CALM      30.34F
DICKINSON      SUNNY     53  29  39 VRB5      30.31F
HETTINGER      SUNNY     54  28  36 N8        30.33F
$$

 *****  OTHER AIRPORT OBSERVATIONS IN OUR AREA  *****

CITY           SKY/WX    TMP DP  RH WIND       PRES   REMARKS
WALHALLA       FAIR      57  27  30 E5        30.30F
GRAFTON AIRPOR FAIR      57  28  33 NE7       30.31F
VALLEY CITY AR FAIR      54  32  43 CALM      30.30F
CANDO          FAIR      57  25  28 N5        30.33F
CAVALIER APRT  FAIR      57  28  33 NE3       30.30F
GWINNER        FAIR      54  32  43 N9        30.29F
SHEYENNE NWR     N/A     55  30  38 N6        29.95S
ROLLA          FAIR      55  23  28 NE8       30.31F
 ***** THE ABOVE OBSERVATIONS ARE NON NWS ARE NOT QUALITY
       CONTROLLED AND MAY MIS-REPORT RAIN FOR SNOW...
$$

  *****  WEATHER ACROSS NORTHERN MINNESOTA  *****

CITY           SKY/WX    TMP DP  RH WIND       PRES   REMARKS
FLAG ISLAND    SUNNY     45  32  61 SE6       30.29F
WARROAD        SUNNY     52  36  54 NE5       30.30F
ROSEAU         SUNNY     55  34  44 NE5       30.29F
HALLOCK        SUNNY     59  21  23 E7        30.29F
THF RVR FALLS  SUNNY     55  28  35 NE6G16    30.29F
BAUDETTE       SUNNY     55  29  36 VRB5      30.28F
WASKISH        SUNNY     52  36  54 SW3       30.27F
CROOKSTON      SUNNY     55  32  41 NE6       30.29F
GREENBUSH NDAW   N/A     55  28  35 E3          N/A
$$
  *****  WEATHER ACROSS CENTRAL AND WEST MINNESOTA  *****

CITY           SKY/WX    TMP DP  RH WIND       PRES   REMARKS
FOSSTON        SUNNY     55  28  35 N8G17     30.28F
BEMIDJI        SUNNY     52  29  42 NE8       30.26F
PARK RAPIDS    SUNNY     53  27  36 NE10      30.25F
ELBOW LAKE     FAIR      49  32  50 NE12G18   30.25F
WADENA         SUNNY     52  30  43 NE15G22   30.23F
DETROIT LAKES  SUNNY     52  30  43 N5        30.27F
MOORHEAD       SUNNY     54  30  40 NE5       30.29F
FERGUS FALLS   SUNNY     52  30  43 NE12G18   30.24F
MORRIS MN      SUNNY     54  34  47 NE16G25   30.22F
STAPLES        SUNNY     52  28  40 NE9G16    30.23F
$$
  *****  WEATHER ELSEWHERE ACROSS MINNESOTA  *****

CITY           SKY/WX    TMP DP  RH WIND       PRES   REMARKS
DULUTH         MOSUNNY   47  35  63 E10       30.23F
INTRNTL FALLS  SUNNY     50  30  46 N10       30.28F
ELY            SUNNY     48  30  49 NE9       30.25F
CLOQUET        MOSUNNY   48  34  57 E12       30.23F
WHEATON        SUNNY     55  34  44 NE10      30.27F
BRAINERD       SUNNY     51  30  44 NE13G20   30.23F
HIBBING        SUNNY     49  28  44 NE7       30.24F
ALEXANDRIA     SUNNY     51  31  46 NE13G25   30.23F
SAINT CLOUD    MOSUNNY   51  34  52 NE8       30.20F
MINNEAPOLIS    PTSUNNY   53  37  54 N14       30.16F
$$

  *****  WEATHER ACROSS SOUTH DAKOTA  *****

CITY           SKY/WX    TMP DP  RH WIND       PRES   REMARKS
SIOUX FALLS    PTSUNNY   47  38  71 N15       30.19S
BROOKINGS      SUNNY     47  36  65 N13       30.20R
WATERTOWN      SUNNY     49  32  52 NE14      30.22S
HURON          SUNNY     50  33  52 N18       30.24S
SISSETON         N/A     54  29  38 E13G24    30.25F
ABERDEEN       SUNNY     53  31  42 N17       30.28F
MITCHELL       SUNNY     49  38  65 N12       30.23S
PIERRE         SUNNY     52  33  48 N10       30.28S
MOBRIDGE       SUNNY     53  34  48 N6        30.28F
RAPID CITY     SUNNY     50  30  46 N14G21    30.32F
$$

  *****  SOME WEATHER IN NEARBY STATES *****

CITY           SKY/WX    TMP DP  RH WIND       PRES   REMARKS
GLASGOW MT     SUNNY     54  35  48 W5        30.34F
GREAT FALLS MT SUNNY     49  36  61 SE5       30.33F
CHEYENNE WY    CLOUDY    35  26  69 N9        30.32R
SCOTTSBLUFF NE CLOUDY    46  28  49 N14       30.33R
OMAHA NE       LGT RAIN  46  44  93 N14       30.07R FOG
DES MOINES IA  DRIZZLE   46  43  89 NE13      30.02R FOG
DAVENPORT IA   CLOUDY    46  44  93 NE13      30.00F FOG
CHICAGO IL     FOG       45  44  97 NE16      30.00S VSB 1/4
EAU CLAIRE WI  SUNNY     55  35  47 NE13      30.12F
LA CROSSE WI   CLOUDY    53  37  54 E8        30.09S
$$

  *****  SOME NATIONAL WEATHER *****

CITY           SKY/WX    TMP DP  RH WIND       PRES   REMARKS
LA GUARDIA NY  LGT RAIN  50  43  77 SE13      30.19F
RALEIGH NC     LGT RAIN  66  64  93 S9G16     30.09F
ATLANTA GA     PTSUNNY   78  66  66 CALM      30.05S
NEW ORLEANS LA CLOUDY    78  73  84 SE6       29.95R THUNDER
OKLAHOMA CITY  CLOUDY    55  40  56 N15       30.08S
ALBUQUERQUE NM PTSUNNY   47  29  49 E28G37    30.07R
SALT LAKE CITY PTSUNNY   54  23  30 NE16G25   30.07F
LOS ANGELES CA MOSUNNY   62  51  67 E7        29.92R
BOISE ID       PTSUNNY   55  38  52 CALM      30.16S
SEATTLE WA     MOSUNNY   58  47  66 N7        30.20F
$$

*** WEATHER ACROSS MANITOBA...SASKATCHEWAN AND ONTARIO ***
                ***ONTARIO***

CITY           SKY/WX    TMP DP  RH WIND       PRES   REMARKS
GERALDTON      CLOUDY    45  34  65 VRB7      30.28F
THUNDER BAY    MOSUNNY   52  36  54 E10       30.26F
SIOUX LOOKOUT  MOSUNNY   48  30  49 VRB3      30.28F
TORONTO        DRIZZLE   48  46  93 NE12      29.98S FOG
BIG TROUT LK   SUNNY     46  30  53 S6        30.25F
PICKLE LAKE    MOSUNNY   50  27  40 VRB5      30.27F
DRYDEN         SUNNY     50  28  43 VRB5      30.28F
KENORA         SUNNY     54  27  35 VRB5      30.28F
$$
                *** MANITOBA***

CITY           SKY/WX    TMP DP  RH WIND       PRES   REMARKS
BRANDON        MOSUNNY   59  28  31 W5        30.31F
DAUPHIN        SUNNY     63  28  27 S7        30.27F
ISLAND LAKE    PTSUNNY   55  30  38 VRB2      30.21
PILOT MOUND      N/A     57  25  28 NE6         N/A
THE PAS        CLOUDY    57  32  38 S7        30.14F
THOMPSON       PTSUNNY   64  32  29 S10       30.09F
WINNIPEG       SUNNY     61  28  29 W7        30.29F
LYNN LAKE      CLOUDY    54  41  62 W12       30.05F
CHURCHILL      PTSUNNY   41  32  70 S14       30.07F
GILLAM         PTSUNNY   52  32  46 NE3       30.12F
$$
                ***SASKATCHEWAN***

CITY           SKY/WX    TMP DP  RH WIND       PRES   REMARKS
ESTEVAN        MOSUNNY   59  30  33 VRB2      30.32F
KINDERSLEY     MOSUNNY   59  37  44 W5        30.26F
LLOYDMINSTER   PTSUNNY   63  36  36 W14       30.20F
PRINCE ALBERT  PTSUNNY   64  37  36 W15       30.16F
REGINA         MOSUNNY   64  27  24 SW9       30.28F
YORKTON        SUNNY     57  30  35 SW13      30.28F
N. BATTLEFORD  SUNNY     63  36  36 W7        30.23F
LA RONGE       MOSUNNY   59  39  47 SW6       30.10S
SASKATOON      MOSUNNY   63  37  39 SW14      30.23F
SWIFT CURRENT  SUNNY     59  36  41 W12       30.29F
$$
NOTE: THESE ARE AUTOMATED STATIONS WITH LIMITED QUALITY CONTROL
      "FAIR" INDICATES FEW OR NO CLOUDS BELOW 12,000 FEET WITH NO
      SIGNIFICANT WEATHER AND/OR OBSTRUCTIONS TO VISIBILITY.
      SKY/WX - SKY CONDITION AND SIGNIFICANT WEATHER.
      TMP - AIR TEMPERATURE.    DP   - DEWPOINT TEMPERATURE.
      RH  - RELATIVE HUMIDITY.  PRES - PRESSURE.
      HX  - HEAT INDEX.         WCI  - WIND CHILL INDEX.
$



USA.gov is the U.S. government's official web portal to all federal, state and local government web resources and services.